Weather History for SBMQ - May, 2013

Change the Weather History Date:

Wednesday, May 1, 2013

  Actual Average Record
Temperature  
Mean Temperature 85 °F -  
Max Temperature 95 °F 85 °F 95 °F (2011)
Min Temperature 75 °F 73 °F 73 °F (1999)
Cooling Degree Days 20    
Growing Degree Days 35 (Base 50)    
Moisture  
Dew Point 75 °F    
Average Humidity 83    
Maximum Humidity 100    
Minimum Humidity 21    
Precipitation  
Precipitation 0.01 in - - ()
Sea Level Pressure  
Sea Level Pressure 29.87 in    
Wind  
Wind Speed 4 mph ()    
Max Wind Speed 9 mph    
Max Gust Speed -    
Visibility 5.7 miles    
Events Rain , Thunderstorm    
Averages and records for this station are not official NWS values.
T = Trace of Precipitation, MM = Missing Value Source: Averaged Metar Reports

Daily Weather History Graph

Daily Weather History Graph

Search for Another Location

Airport or City:

Trip Planner

Search our weather history database for the weather conditions in past years. The results will help you decide how hot, cold, wet, or windy it might be!

Date:

Astronomy

May. 01, 2013 Rise Set
Actual Time 6:17 AM BRT 6:24 PM BRT
Civil Twilight 5:56 AM BRT 6:46 PM BRT
Nautical Twilight 5:31 AM BRT 7:11 PM BRT
Astronomical Twilight 5:06 AM BRT 7:36 PM BRT
Moon No Moon Rise 11:50 AM BRT (5/1)
Length of Visible Light 12h 49m
Length of Day
12h 06m
Waning Gibbous, 60% of the Moon is Illuminated
May 1
Waning Gibbous
May 2
Last Quarter
May 9
New
May 18
First Quarter
May 25
Full

Hourly Weather History & Observations

Time (BRT) Temp. Heat Index Dew Point Humidity Pressure Visibility Wind Dir Wind Speed Gust Speed Precip Events Conditions
12:00 AM 78.8 °F - 77.0 °F 94% 29.89 in 6.2 mi NNW 3.5 mph - N/A   Partly Cloudy
1:00 AM 78.8 °F - 77.0 °F 94% 29.89 in 6.2 mi NNW 2.3 mph - N/A   Scattered Clouds
2:00 AM 78.8 °F - 77.0 °F 94% 29.86 in 6.2 mi NNW 4.6 mph - N/A   Scattered Clouds
3:00 AM 78.8 °F - 77.0 °F 94% 29.83 in 6.2 mi NNW 3.5 mph - N/A   Scattered Clouds
4:00 AM 78.8 °F - 35.6 °F 21% 29.83 in 6.2 mi NNW 4.6 mph - N/A Thunderstorm Thunderstorm
5:00 AM 77.0 °F - 77.0 °F 100% 29.86 in 3.7 mi NW 2.3 mph - N/A Rain Light Rain
6:00 AM 77.0 °F - 75.2 °F 94% 29.86 in 5.0 mi West 2.3 mph - N/A Rain Light Rain
7:00 AM 77.0 °F - 75.2 °F 94% 29.89 in 6.2 mi WNW 2.3 mph - N/A   Mostly Cloudy
8:00 AM 77.0 °F - 77.0 °F 100% 29.89 in 6.2 mi NNE 3.5 mph - N/A   Mostly Cloudy
9:00 AM 78 °F - 76 °F 91% 29.93 in 6 mi North 1.2 mph - -   Partly Cloudy
9:00 AM 80.6 °F 87.1 °F 77.0 °F 89% 29.92 in 6.2 mi Calm Calm - N/A   Mostly Cloudy
10:00 AM 86.0 °F 96.9 °F 77.0 °F 74% 29.92 in 6.2 mi NNE 2.3 mph - N/A   Mostly Cloudy
11:00 AM 87.8 °F 99.7 °F 77.0 °F 70% 29.89 in 6.2 mi NE 2.3 mph - N/A   Mostly Cloudy
12:00 PM 91.4 °F 102.5 °F 75.2 °F 59% 29.89 in 6.2 mi NE 5.8 mph - N/A   Mostly Cloudy
1:00 PM 91.4 °F 102.5 °F 75.2 °F 59% 29.86 in 6.2 mi North 6.9 mph - N/A   Mostly Cloudy
2:00 PM 91.4 °F 102.5 °F 75.2 °F 59% 29.83 in 6.2 mi ENE 8.1 mph - N/A   Mostly Cloudy
3:00 PM 86 °F - 78 °F 71% 29.81 in 2 mi ESE 3.5 mph - -   Partly Cloudy
3:00 PM 95.0 °F 109.7 °F 77.0 °F 56% 29.80 in 6.2 mi ENE 6.9 mph - N/A   Scattered Clouds
4:00 PM 86.0 °F 96.9 °F 77.0 °F 74% 29.80 in 6.2 mi ESE 9.2 mph - N/A Rain , Thunderstorm Light Thunderstorms and Rain
5:00 PM 80.6 °F 88.1 °F 78.8 °F 94% 29.80 in 6.2 mi ENE 6.9 mph - N/A   Overcast
6:00 PM 80.6 °F 88.1 °F 78.8 °F 94% 29.80 in 6.2 mi NNE 6.9 mph - N/A   Scattered Clouds
7:00 PM 80.6 °F 87.1 °F 77.0 °F 89% 29.83 in 6.2 mi North 4.6 mph - N/A   Mostly Cloudy
8:00 PM 80.6 °F 87.1 °F 77.0 °F 89% 29.86 in 6.2 mi North 4.6 mph - N/A   Mostly Cloudy
9:00 PM 80.6 °F 87.1 °F 77.0 °F 89% 29.89 in 6.2 mi NNE 5.8 mph - N/A   Mostly Cloudy
10:00 PM 78.8 °F - 78.8 °F 100% 29.92 in 6.2 mi NNE 4.6 mph - N/A Rain Light Rain
11:00 PM 78.8 °F - 77.0 °F 94% 29.92 in 6.2 mi NNE 4.6 mph - N/A Rain Light Rain
11:31 PM 78.8 °F - 78.8 °F 100% 29.92 in 1.9 mi NNE 5.8 mph - N/A Rain Rain